HULIANWANG DIGUI-34 (64287 NORAD) Tracking and Keplerian Element Data

This shows tracking and keplerian element data for the satellite.

Feedback or suggestion? Click here.




ElementValue
Catalog64287
NameHULIANWANG DIGUI-34
Epoch Orbit2647
Epoch Day354.2402396
Epoch Year2025
RAAN73.9424
Inclination86.4963
Eccentricity0.0001399
Argument of Perigee124.3141
Mean Anonmoly235.8126
Mean Motion13.24418984
Decay Rate8.1E-07
L11 64287U 25121E 25354.24023960 .00000081 00000+0 15391-3 0 9993
L22 64287 86.4963 73.9424 0001399 124.3141 235.8126 13.24418984 26472



Live tracking and technical data element details for HULIANWANG DIGUI-34 (NORAD 64287). HULIANWANG DIGUI-34 can be tracked NOW for your location showing map with azimuth and elevation plus other details from your city location.







IsCatalogInMostPopularTable: catalog: 64287, numindb: 10
Update: records affected: 1



GetName: 64287 HULIANWANG DIGUI-34

Hit Count: updated at: Tue, 21 Apr 2026 20:15:48 GMT